FW8343 Weather Reports


Display with metric or nautical units.
time (UTC)temp
F
wind
direction
speed
MPH
gust
MPH
rain 1hr
in
rain 24hr
in
rain mn
in
humidity
%
barometer
mb
20260509002013 60 272 1.0 4.0 0.00 0.00 0.00 34 1001.3
20260509001531 60 267 2.0 4.0 0.00 0.00 0.00 34 1001.4
20260509001013 60 265 1.0 5.0 0.00 0.00 0.00 35 1001.4
20260509000510 60 0 1.0 7.0 0.00 0.00 0.00 34 1001.4
20260509000031 60 280 2.0 7.0 0.00 0.00 0.00 33 1001.4
20260508235517 60 270 1.0 11.0 0.00 0.00 0.00 34 1001.5
20260508235015 60 288 1.0 21.0 0.00 0.00 0.00 36 1001.6
20260508234532 60 266 6.0 21.0 0.00 0.00 0.00 32 1001.7
20260508234011 61 242 8.0 21.0 0.00 0.00 0.00 33 1001.8
20260508233511 61 240 3.0 10.0 0.00 0.00 0.00 33 1001.7
20260508233032 61 275 2.0 20.0 0.00 0.00 0.00 32 1001.8
20260508232513 60 284 3.0 20.0 0.00 0.00 0.00 32 1001.8
20260508232019 61 219 3.0 9.0 0.00 0.00 0.00 32 1002.0
20260508231532 60 234 3.0 9.0 0.00 0.00 0.00 36 1001.8
20260508231011 60 258 3.0 7.0 0.00 0.00 0.00 35 1001.9
20260508230511 60 218 2.0 8.0 0.00 0.00 0.00 39 1001.8
20260508230031 60 243 2.0 9.0 0.00 0.00 0.00 33 1001.9
20260508225512 60 223 2.0 9.0 0.00 0.00 0.00 32 1002.0
20260508225010 61 219 3.0 8.0 0.00 0.00 0.00 36 1002.0
20260508224533 61 232 2.0 8.0 0.00 0.00 0.00 33 1002.0
20260508224009 61 228 3.0 8.0 0.00 0.00 0.00 32 1002.1
20260508223513 61 277 3.0 9.0 0.00 0.00 0.00 32 1002.1
20260508223039 61 267 1.0 9.0 0.00 0.00 0.00 33 1002.1
20260508222511 61 254 3.0 9.0 0.00 0.00 0.00 32 1002.1
20260508222012 61 261 4.0 8.0 0.00 0.00 0.00 32 1002.2
20260508221532 61 265 3.0 11.0 0.00 0.00 0.00 32 1002.3
20260508221016 61 220 4.0 12.0 0.00 0.00 0.00 39 1002.3
20260508220513 61 273 4.0 12.0 0.00 0.00 0.00 31 1002.4
20260508220034 61 350 2.0 9.0 0.00 0.00 0.00 33 1002.5
20260508215511 61 254 2.0 9.0 0.00 0.00 0.00 35 1002.6
20260508215015 61 225 1.0 8.0 0.00 0.00 0.00 32 1002.7
20260508214534 61 265 4.0 9.0 0.00 0.00 0.00 32 1002.7
20260508214012 61 274 3.0 9.0 0.00 0.00 0.00 32 1002.8
20260508213513 61 294 2.0 7.0 0.00 0.00 0.00 34 1002.8
20260508213032 60 288 1.0 6.0 0.00 0.00 0.00 33 1002.7
20260508212510 60 228 2.0 7.0 0.00 0.00 0.00 36 1002.8
20260508212012 61 255 2.0 11.0 0.00 0.00 0.00 33 1002.8
20260508211529 60 232 3.0 11.0 0.00 0.00 0.00 37 1003.0
20260508211011 60 232 4.0 9.0 0.00 0.00 0.00 34 1003.0
20260508210511 60 218 4.0 9.0 0.00 0.00 0.00 33 1002.9
20260508210029 61 228 2.0 9.0 0.00 0.00 0.00 32 1003.0
20260508205512 61 271 4.0 9.0 0.00 0.00 0.00 32 1003.0
20260508205019 61 241 3.0 10.0 0.00 0.00 0.00 33 1003.0
20260508204532 60 259 4.0 10.0 0.00 0.00 0.00 33 1003.1
20260508204010 59 234 4.0 10.0 0.00 0.00 0.00 36 1003.1
20260508203514 59 240 3.0 10.0 0.00 0.00 0.00 39 1003.1
20260508203038 60 193 2.0 6.0 0.00 0.00 0.00 32 1003.2
20260508202512 60 234 1.0 9.0 0.00 0.00 0.00 32 1003.3
20260508202012 60 224 2.0 10.0 0.00 0.00 0.00 34 1003.4
20260508201533 59 267 5.0 10.0 0.00 0.00 0.00 34 1003.4
20260508201010 59 226 1.0 10.0 0.00 0.00 0.00 37 1003.4
20260508200514 59 190 2.0 10.0 0.00 0.00 0.00 37 1003.5
20260508200034 59 208 4.0 8.0 0.00 0.00 0.00 33 1003.5
20260508195513 59 111 2.0 8.0 0.00 0.00 0.00 33 1003.5
20260508195012 59 223 3.0 8.0 0.00 0.00 0.00 36 1003.6
20260508194531 59 220 3.0 12.0 0.00 0.00 0.00 33 1003.7
20260508194013 59 225 5.0 12.0 0.00 0.00 0.00 33 1003.7
20260508193511 60 219 5.0 9.0 0.00 0.00 0.00 34 1003.8
20260508193032 60 273 2.0 8.0 0.00 0.00 0.00 32 1003.9
20260508192511 60 251 1.0 9.0 0.00 0.00 0.00 33 1004.0
20260508192021 60 287 3.0 10.0 0.00 0.00 0.00 37 1004.2
20260508191537 59 207 2.0 10.0 0.00 0.00 0.00 33 1004.1
20260508191011 59 281 4.0 10.0 0.00 0.00 0.00 34 1004.2
20260508190514 59 207 1.0 6.0 0.00 0.00 0.00 34 1004.2
20260508190035 60 0 2.0 6.0 0.00 0.00 0.00 32 1004.3
20260508185513 60 244 1.0 7.0 0.00 0.00 0.00 34 1004.4
20260508185011 59 231 2.0 7.0 0.00 0.00 0.00 36 1004.6
20260508184530 59 242 1.0 6.0 0.00 0.00 0.00 37 1004.6
20260508184009 60 0 1.0 8.0 0.00 0.00 0.00 31 1004.7
20260508183512 60 254 3.0 8.0 0.00 0.00 0.00 34 1004.8
20260508183034 60 170 1.0 7.0 0.00 0.00 0.00 32 1004.8
20260508182510 59 289 1.0 4.0 0.00 0.00 0.00 35 1004.9
20260508182014 59 240 1.0 4.0 0.00 0.00 0.00 33 1005.1
20260508181536 59 270 0.0 8.0 0.00 0.00 0.00 32 1005.2
20260508181010 58 269 3.0 8.0 0.00 0.00 0.00 30 1005.3
20260508180513 58 250 2.0 6.0 0.00 0.00 0.00 32 1005.4
20260508180032 59 224 2.0 10.0 0.00 0.00 0.00 30 1005.4
20260508175512 60 222 3.0 10.0 0.00 0.00 0.00 31 1005.5
20260508175012 59 242 2.0 8.0 0.00 0.00 0.00 33 1005.4
20260508174533 60 201 2.0 11.0 0.00 0.00 0.00 34 1005.5
20260508174009 60 266 2.0 11.0 0.00 0.00 0.00 32 1005.5
20260508173513 61 213 1.0 8.0 0.00 0.00 0.00 31 1005.6
20260508173040 61 294 2.0 8.0 0.00 0.00 0.00 31 1005.6
20260508172512 61 292 2.0 8.0 0.00 0.00 0.00 32 1005.7
20260508172015 60 263 3.0 9.0 0.00 0.00 0.00 35 1005.8
20260508171532 60 271 2.0 10.0 0.00 0.00 0.00 36 1005.8
20260508171011 61 258 2.0 11.0 0.00 0.00 0.00 34 1006.0
20260508170511 60 0 2.0 11.0 0.00 0.00 0.00 35 1006.0
20260508170030 60 292 2.0 11.0 0.00 0.00 0.00 34 1006.0
20260508165512 60 22 1.0 6.0 0.00 0.00 0.00 32 1006.0
20260508165013 59 230 3.0 8.0 0.00 0.00 0.00 31 1006.2
20260508164530 59 269 2.0 10.0 0.00 0.00 0.00 32 1006.2
20260508164012 59 288 2.0 10.0 0.00 0.00 0.00 35 1006.3
20260508163513 59 19 2.0 10.0 0.00 0.00 0.00 33 1006.3
20260508163034 58 326 1.0 6.0 0.00 0.00 0.00 37 1006.4
20260508162512 57 267 1.0 6.0 0.00 0.00 0.00 37 1006.6
20260508162013 57 256 2.0 6.0 0.00 0.00 0.00 36 1006.5
20260508161530 57 219 1.0 10.0 0.00 0.00 0.00 37 1006.6
20260508161012 56 232 4.0 10.0 0.00 0.00 0.00 38 1006.6
20260508160515 57 223 3.0 9.0 0.00 0.00 0.00 36 1006.6
20260508160034 57 288 2.0 9.0 0.00 0.00 0.00 37 1006.7
20260508155514 57 247 3.0 9.0 0.00 0.00 0.00 35 1006.7
20260508155013 57 10 2.0 8.0 0.00 0.00 0.00 36 1006.7
20260508154529 56 284 2.0 8.0 0.00 0.00 0.00 37 1006.9
20260508154013 56 0 1.0 7.0 0.00 0.00 0.00 38 1007.0
20260508153514 55 310 2.0 7.0 0.00 0.00 0.00 39 1007.1
20260508153033 56 250 2.0 7.0 0.00 0.00 0.00 37 1007.3
20260508152514 56 241 2.0 7.0 0.00 0.00 0.00 40 1007.3
20260508152014 56 223 3.0 9.0 0.00 0.00 0.00 39 1007.3
20260508151536 56 310 3.0 10.0 0.00 0.00 0.00 38 1007.3
20260508151011 56 257 3.0 10.0 0.00 0.00 0.00 39 1007.3
20260508150516 56 285 2.0 8.0 0.00 0.00 0.00 39 1007.5
20260508150034 55 273 1.0 8.0 0.00 0.00 0.00 41 1007.5
20260508145510 54 254 2.0 8.0 0.00 0.00 0.00 44 1007.5
20260508145010 53 259 3.0 8.0 0.00 0.00 0.00 43 1007.5
20260508144530 52 294 3.0 8.0 0.00 0.00 0.00 43 1007.7
20260508144009 52 243 0.0 4.0 0.00 0.00 0.00 45 1007.7
20260508143514 52 243 0.0 5.0 0.00 0.00 0.00 47 1007.7
20260508143033 51 0 0.0 5.0 0.00 0.00 0.00 50 1007.7
20260508142510 50 216 1.0 5.0 0.00 0.00 0.00 49 1007.8
20260508142013 50 202 1.0 5.0 0.00 0.00 0.00 57 1007.8
20260508141554 49 0 1.0 5.0 0.00 0.00 0.00 55 1007.9
20260508141011 49 185 2.0 7.0 0.00 0.00 0.00 56 1007.9
20260508140516 48 185 3.0 8.0 0.00 0.00 0.00 56 1007.9
20260508140031 48 194 2.0 8.0 0.00 0.00 0.00 58 1008.0
20260508135517 47 223 1.0 7.0 0.00 0.00 0.00 57 1008.0
20260508135014 47 223 2.0 7.0 0.00 0.00 0.00 61 1008.1
20260508134548 46 193 1.0 8.0 0.00 0.00 0.00 64 1008.1
20260508134010 46 193 4.0 8.0 0.00 0.00 0.00 65 1008.0
20260508133517 46 199 3.0 8.0 0.00 0.00 0.00 67 1008.1
20260508133030 45 207 2.0 7.0 0.00 0.00 0.00 67 1008.1
20260508132513 45 217 3.0 7.0 0.00 0.00 0.00 67 1008.2
20260508132015 44 194 2.0 8.0 0.00 0.00 0.00 70 1008.1
20260508131535 44 196 3.0 8.0 0.00 0.00 0.00 71 1008.2
20260508131011 43 205 0.0 6.0 0.00 0.00 0.00 78 1008.2
20260508130513 42 202 0.0 4.0 0.00 0.00 0.00 82 1008.2
20260508130032 41 0 1.0 4.0 0.00 0.00 0.00 89 1008.2
20260508125510 39 0 1.0 4.0 0.00 0.00 0.00 96 1008.2
20260508125014 38 321 0.0 0.0 0.00 0.00 0.00 98 1008.3
20260508124532 37 0 0.0 0.0 0.00 0.00 0.00 98 1008.3
20260508124010 37 0 0.0 0.0 0.00 0.00 0.00 99 1008.3
20260508123517 36 0 0.0 0.0 0.00 0.00 0.00 99 1008.3
20260508123043 36 0 0.0 0.0 0.00 0.00 0.00 98 1008.2
20260508122509 35 0 0.0 0.0 0.00 0.00 0.00 98 1008.2
20260508122015 33 0 0.0 0.0 0.00 0.00 0.00 98 1008.2
20260508121533 33 0 0.0 0.0 0.00 0.00 0.00 97 1008.2
20260508121012 32 0 0.0 0.0 0.00 0.00 0.00 97 1008.2
20260508120511 32 0 0.0 0.0 0.00 0.00 0.00 97 1008.1
20260508120029 32 0 0.0 0.0 0.00 0.00 0.00 97 1008.1
20260508115510 31 0 0.0 0.0 0.00 0.00 0.00 97 1008.1
20260508115011 31 0 0.0 0.0 0.00 0.00 0.00 97 1008.1
20260508114536 31 0 0.0 0.0 0.00 0.00 0.00 97 1008.1
20260508114011 31 0 0.0 0.0 0.00 0.00 0.00 97 1008.1
20260508113511 31 0 0.0 0.0 0.00 0.00 0.00 97 1008.1
20260508113047 30 0 0.0 0.0 0.00 0.00 0.00 96 1008.1
20260508112513 30 0 0.0 0.0 0.00 0.00 0.00 96 1008.2
20260508112012 30 0 0.0 0.0 0.00 0.00 0.00 96 1008.2
20260508111532 30 0 0.0 0.0 0.00 0.00 0.00 97 1008.1
20260508111018 30 0 0.0 0.0 0.00 0.00 0.00 97 1008.2
20260508110514 30 0 0.0 0.0 0.00 0.00 0.00 96 1008.1
20260508110031 29 0 0.0 0.0 0.00 0.00 0.00 96 1008.1
20260508105512 30 0 0.0 0.0 0.00 0.00 0.00 96 1008.1
20260508105018 29 0 0.0 0.0 0.00 0.00 0.00 96 1008.1
20260508104532 29 0 0.0 0.0 0.00 0.00 0.00 96 1008.2
20260508104010 29 0 0.0 0.0 0.00 0.00 0.00 96 1008.1
20260508103513 29 0 0.0 0.0 0.00 0.00 0.00 95 1008.2
20260508103035 29 0 0.0 0.0 0.00 0.00 0.00 96 1008.2
20260508102511 29 0 0.0 0.0 0.00 0.00 0.00 96 1008.2
20260508102013 29 0 0.0 0.0 0.00 0.00 0.00 96 1008.3
20260508101534 29 0 0.0 0.0 0.00 0.00 0.00 96 1008.3
20260508101016 29 0 0.0 0.0 0.00 0.00 0.00 96 1008.3
20260508100516 28 0 0.0 0.0 0.00 0.00 0.00 95 1008.3
20260508100030 29 0 0.0 0.0 0.00 0.00 0.00 95 1008.3
20260508095512 30 0 0.0 0.0 0.00 0.00 0.00 95 1008.3
20260508095012 30 0 0.0 0.0 0.00 0.00 0.00 96 1008.3
20260508094530 30 0 0.0 0.0 0.00 0.00 0.00 96 1008.3
20260508094010 30 0 0.0 0.0 0.00 0.00 0.00 96 1008.4
20260508093512 30 0 0.0 0.0 0.00 0.00 0.00 96 1008.4
20260508093032 30 0 0.0 0.0 0.00 0.00 0.00 96 1008.4
20260508092512 30 0 0.0 0.0 0.00 0.00 0.00 95 1008.4
20260508092009 30 0 0.0 0.0 0.00 0.00 0.00 96 1008.4
20260508091537 30 0 0.0 0.0 0.00 0.00 0.00 95 1008.3
20260508091011 30 0 0.0 0.0 0.00 0.00 0.00 95 1008.4
20260508090511 30 0 0.0 0.0 0.00 0.00 0.00 95 1008.4
20260508090038 30 0 0.0 0.0 0.00 0.00 0.00 95 1008.5
20260508085510 30 0 0.0 0.0 0.00 0.00 0.00 95 1008.5
20260508085011 30 0 0.0 0.0 0.00 0.00 0.00 95 1008.5
20260508084530 30 0 0.0 0.0 0.00 0.00 0.00 95 1008.5
20260508084012 30 0 0.0 0.0 0.00 0.00 0.00 95 1008.5
20260508083512 31 0 0.0 0.0 0.00 0.00 0.00 95 1008.4
20260508083029 31 0 0.0 0.0 0.00 0.00 0.00 95 1008.4
20260508082511 31 0 0.0 0.0 0.00 0.00 0.00 95 1008.5
20260508082011 31 0 0.0 0.0 0.00 0.00 0.00 96 1008.5
20260508081531 30 0 0.0 0.0 0.00 0.00 0.00 95 1008.4
20260508081009 30 0 0.0 0.0 0.00 0.00 0.00 94 1008.4
20260508080510 30 0 0.0 0.0 0.00 0.00 0.00 93 1008.6
20260508080034 31 0 0.0 0.0 0.00 0.00 0.00 94 1008.6
20260508075512 31 0 0.0 0.0 0.00 0.00 0.00 94 1008.6
20260508075013 31 0 0.0 0.0 0.00 0.00 0.00 94 1008.6
20260508074536 31 0 0.0 0.0 0.00 0.00 0.00 94 1008.7
20260508074011 31 0 0.0 0.0 0.00 0.00 0.00 94 1008.7
20260508073513 32 0 0.0 0.0 0.00 0.00 0.00 94 1008.8
20260508073032 32 0 0.0 0.0 0.00 0.00 0.00 95 1008.8
20260508072510 32 0 0.0 0.0 0.00 0.00 0.00 95 1008.8
20260508072014 32 0 0.0 0.0 0.00 0.00 0.00 95 1008.9
20260508071532 31 0 0.0 0.0 0.00 0.00 0.00 94 1008.9
20260508071013 31 0 0.0 0.0 0.00 0.00 0.00 93 1009.0
20260508070517 32 0 0.0 0.0 0.00 0.00 0.00 93 1009.0
20260508070033 32 0 0.0 0.0 0.00 0.00 0.00 94 1009.1
20260508065510 31 0 0.0 0.0 0.00 0.00 0.00 93 1009.1
20260508065015 31 0 0.0 0.0 0.00 0.00 0.00 93 1009.0
20260508064530 31 0 0.0 0.0 0.00 0.00 0.00 92 1009.1
20260508064011 31 0 0.0 0.0 0.00 0.00 0.00 93 1009.2
20260508063514 31 0 0.0 0.0 0.00 0.00 0.00 92 1009.1
20260508063029 31 0 0.0 0.0 0.00 0.00 0.00 92 1009.2
20260508062513 31 0 0.0 0.0 0.00 0.00 0.00 91 1009.2
20260508062016 31 0 0.0 0.0 0.00 0.00 0.00 91 1009.2
20260508061532 31 0 0.0 0.0 0.00 0.00 0.00 91 1009.2
20260508061012 31 0 0.0 0.0 0.00 0.00 0.00 92 1009.2
20260508060515 31 0 0.0 0.0 0.00 0.00 0.00 90 1009.2
20260508060031 31 0 0.0 0.0 0.00 0.00 0.00 90 1009.2
20260508055508 31 0 0.0 0.0 0.00 0.00 0.00 89 1009.2
20260508055011 32 0 0.0 0.0 0.00 0.00 0.00 89 1009.3
20260508054531 32 0 0.0 0.0 0.00 0.00 0.00 88 1009.2
20260508054012 33 0 0.0 0.0 0.00 0.00 0.00 88 1009.4
20260508053514 33 0 0.0 0.0 0.00 0.00 0.00 89 1009.3
20260508053028 33 0 0.0 0.0 0.00 0.00 0.00 88 1009.4
20260508052511 33 0 0.0 0.0 0.00 0.00 0.00 88 1009.5
20260508052015 33 0 0.0 0.0 0.00 0.00 0.00 88 1009.5
20260508051528 33 0 0.0 0.0 0.00 0.00 0.00 87 1009.6
20260508051010 34 0 0.0 0.0 0.00 0.00 0.00 87 1009.5
20260508050511 34 0 0.0 0.0 0.00 0.00 0.00 88 1009.5
20260508050031 34 0 0.0 0.0 0.00 0.00 0.00 86 1009.5
20260508045512 34 0 0.0 0.0 0.00 0.00 0.00 85 1009.5
20260508045011 34 0 0.0 0.0 0.00 0.00 0.00 84 1009.5
20260508044534 35 0 0.0 0.0 0.00 0.00 0.00 84 1009.6
20260508044008 35 0 0.0 0.0 0.00 0.00 0.00 84 1009.6
20260508043514 35 0 0.0 0.0 0.00 0.00 0.00 83 1009.7
20260508043031 35 0 0.0 0.0 0.00 0.00 0.00 81 1009.7
20260508042511 35 0 0.0 0.0 0.00 0.00 0.00 81 1009.7
20260508042012 35 0 0.0 0.0 0.00 0.00 0.00 80 1009.8
20260508041530 35 0 0.0 0.0 0.00 0.00 0.00 79 1009.8
20260508041011 36 0 0.0 0.0 0.00 0.00 0.00 79 1009.7
20260508040516 37 0 0.0 0.0 0.00 0.00 0.00 81 1009.7
20260508040031 37 0 0.0 0.0 0.00 0.00 0.00 81 1009.8
20260508035509 37 0 0.0 0.0 0.00 0.00 0.00 80 1009.7
20260508035015 37 0 0.0 0.0 0.00 0.00 0.00 80 1009.7
20260508034530 37 0 0.0 0.0 0.00 0.00 0.00 80 1009.7
20260508034010 38 0 0.0 0.0 0.00 0.00 0.00 80 1009.7
20260508033518 38 0 0.0 0.0 0.00 0.00 0.00 80 1009.7
20260508033027 38 0 0.0 0.0 0.00 0.00 0.00 77 1009.7
20260508032512 38 0 0.0 0.0 0.00 0.00 0.00 77 1009.7
20260508032017 38 0 0.0 0.0 0.00 0.00 0.00 76 1009.6
20260508031531 38 0 0.0 0.0 0.00 0.00 0.00 73 1009.8
20260508031011 38 0 0.0 0.0 0.00 0.00 0.00 72 1009.7
20260508030515 39 0 0.0 0.0 0.00 0.00 0.00 73 1009.7
20260508030030 39 0 0.0 0.0 0.00 0.00 0.00 75 1009.8
20260508025511 39 0 0.0 0.0 0.00 0.00 0.00 76 1009.7
20260508025015 40 0 0.0 0.0 0.00 0.00 0.00 75 1009.7
20260508024537 40 0 0.0 0.0 0.00 0.00 0.00 74 1009.7
20260508024010 40 0 0.0 0.0 0.00 0.00 0.00 73 1009.7
20260508023513 40 0 0.0 0.0 0.00 0.00 0.00 71 1009.7
20260508023029 40 0 0.0 0.0 0.00 0.00 0.00 68 1009.7
20260508022514 41 0 0.0 0.0 0.00 0.00 0.00 63 1009.7
20260508022016 41 0 0.0 0.0 0.00 0.00 0.00 62 1009.7
20260508021533 41 0 0.0 0.0 0.00 0.00 0.00 63 1009.8
20260508021016 41 0 0.0 0.0 0.00 0.00 0.00 64 1009.7
20260508020513 42 0 0.0 0.0 0.00 0.00 0.00 64 1009.7
20260508020029 42 0 0.0 0.0 0.00 0.00 0.00 65 1009.7
20260508015510 43 0 0.0 0.0 0.00 0.00 0.00 64 1009.6
20260508015014 43 0 0.0 0.0 0.00 0.00 0.00 61 1009.5
20260508014530 43 0 0.0 0.0 0.00 0.00 0.00 59 1009.5
20260508014011 44 0 0.0 0.0 0.00 0.00 0.00 56 1009.4
20260508013517 44 0 0.0 0.0 0.00 0.00 0.00 56 1009.4
20260508013040 44 0 0.0 1.0 0.00 0.00 0.00 55 1009.5
20260508012508 44 0 0.0 1.0 0.00 0.00 0.00 55 1009.5
20260508012011 45 321 0.0 0.0 0.00 0.00 0.00 56 1009.4
20260508011533 45 0 0.0 0.0 0.00 0.00 0.00 55 1009.4
20260508011009 45 0 0.0 1.0 0.00 0.00 0.00 55 1009.5
20260508010512 46 0 0.0 1.0 0.00 0.00 0.00 54 1009.3
20260508010033 46 0 0.0 3.0 0.00 0.00 0.00 54 1009.4
20260508005513 46 0 0.0 3.0 0.00 0.00 0.00 54 1009.4
20260508005017 46 0 0.0 2.0 0.00 0.00 0.00 53 1009.4
20260508004536 47 321 0.0 2.0 0.00 0.00 0.00 53 1009.3
20260508004013 47 0 0.0 2.0 0.00 0.00 0.00 52 1009.3
20260508003515 47 0 0.0 3.0 0.00 0.00 0.00 53 1009.3
20260508003032 48 321 0.0 4.0 0.00 0.00 0.00 52 1009.3
20260508002511 48 0 1.0 6.0 0.00 0.00 0.00 51 1009.3